• In Kazakhstan
  • List of Countries
  • For 7 days
  • Water Temperature
  • Satellite Maps
  • Weather Map
  • News
  • Weather Widgets
  • user-avatar
    Login

    Hourly Weather Satif

    Today, 20 January, Sunday

    Time Temperature Precipitation Wind Pressure Humidity
    00:00 +3°C° 0 mm 1 mps 668 mmHg 88%
    01:00 +2°C° 0 mm 1 mps 667 mmHg 87%
    02:00 +2°C° 0 mm 1 mps 667 mmHg 85%
    03:00 +2°C° 0 mm 1 mps 667 mmHg 84%
    04:00 +1°C° 0 mm 2 mps 667 mmHg 83%
    05:00 +1°C° 0 mm 2 mps 666 mmHg 83%
    06:00 +1°C° 0 mm 2 mps 666 mmHg 81%
    07:00 +2°C° 0 mm 2 mps 666 mmHg 80%
    08:00 +2°C° 0 mm 3 mps 667 mmHg 78%
    09:00 +3°C° 0 mm 3 mps 667 mmHg 77%
    10:00 +4°C° 0.2 mm 4 mps 666 mmHg 76%
    11:00 +5°C° 0.2 mm 5 mps 666 mmHg 75%
    12:00 +6°C° 0.2 mm 5 mps 666 mmHg 74%
    13:00 +4°C° 1.1 mm 6 mps 665 mmHg 77%
    14:00 +4°C° 1.1 mm 6 mps 665 mmHg 79%
    15:00 +3°C° 1.1 mm 6 mps 664 mmHg 81%
    16:00 +3°C° 0.3 mm 5 mps 664 mmHg 84%
    17:00 +4°C° 0.3 mm 4 mps 664 mmHg 87%
    18:00 +3°C° 0.3 mm 3 mps 664 mmHg 90%
    19:00 +3°C° 0 mm 3 mps 664 mmHg 91%
    20:00 +3°C° 0 mm 3 mps 664 mmHg 92%
    21:00 +2°C° 0 mm 3 mps 664 mmHg 93%
    22:00 +2°C° 0 mm 3 mps 664 mmHg 94%
    23:00 +3°C° 0 mm 2 mps 664 mmHg 94%

    Tomorrow, 21 January, Monday

    Time Temperature Precipitation Wind Pressure Humidity
    00:00 +3°C° 0 mm 2 mps 664 mmHg 94%
    01:00 +3°C° 0.1 mm 2 mps 664 mmHg 94%
    02:00 +3°C° 0.1 mm 2 mps 664 mmHg 94%
    03:00 +4°C° 0.1 mm 2 mps 664 mmHg 95%
    04:00 +2°C° 0.1 mm 3 mps 664 mmHg 94%
    05:00 +2°C° 0.1 mm 3 mps 664 mmHg 93%
    06:00 +1°C° 0.1 mm 4 mps 664 mmHg 92%
    07:00 +2°C° 0 mm 5 mps 664 mmHg 87%
    08:00 +2°C° 0 mm 6 mps 665 mmHg 82%
    09:00 +3°C° 0 mm 7 mps 665 mmHg 77%
    10:00 +3°C° 0.4 mm 7 mps 665 mmHg 79%
    11:00 +3°C° 0.4 mm 7 mps 665 mmHg 80%
    12:00 +3°C° 0.4 mm 7 mps 665 mmHg 82%
    13:00 +3°C° 0.7 mm 7 mps 666 mmHg 83%
    14:00 +2°C° 0.7 mm 6 mps 666 mmHg 84%
    15:00 +2°C° 0.7 mm 6 mps 666 mmHg 86%
    16:00 +2°C° 0.2 mm 6 mps 666 mmHg 88%
    17:00 +1°C° 0.2 mm 5 mps 667 mmHg 90%
    18:00 +1°C° 0.2 mm 4 mps 668 mmHg 92%
    19:00 +1°C° 0.1 mm 4 mps 668 mmHg 92%
    20:00 +2°C° 0.1 mm 3 mps 668 mmHg 93%
    21:00 +2°C° 0.1 mm 3 mps 669 mmHg 93%
    22:00 +1°C° 0.1 mm 3 mps 669 mmHg 93%
    23:00 +1°C° 0.1 mm 3 mps 669 mmHg 94%

    Day after tomorrow, 22 January, Tuesday

    Time Temperature Precipitation Wind Pressure Humidity
    00:00 +1°C° 0.1 mm 3 mps 669 mmHg 94%
    01:00 +1°C° 0 mm 3 mps 669 mmHg 94%
    02:00 +1°C° 0 mm 3 mps 669 mmHg 94%
    03:00 0°C° 0 mm 3 mps 669 mmHg 93%
    04:00 +1°C° 0 mm 2 mps 668 mmHg 94%
    05:00 +1°C° 0 mm 2 mps 668 mmHg 94%
    06:00 -1°C° 0 mm 2 mps 668 mmHg 94%
    07:00 +1°C° 0 mm 2 mps 668 mmHg 90%
    08:00 +1°C° 0 mm 2 mps 669 mmHg 86%
    09:00 +2°C° 0 mm 2 mps 669 mmHg 81%
    10:00 +3°C° 0 mm 2 mps 669 mmHg 75%
    11:00 +4°C° 0 mm 2 mps 669 mmHg 68%
    12:00 +4°C° 0 mm 3 mps 669 mmHg 61%
    13:00 +4°C° 0 mm 3 mps 668 mmHg 60%
    14:00 +4°C° 0 mm 4 mps 667 mmHg 58%
    15:00 +4°C° 0 mm 4 mps 667 mmHg 57%
    16:00 +3°C° 0 mm 4 mps 666 mmHg 62%
    17:00 +3°C° 0 mm 4 mps 666 mmHg 67%
    18:00 +2°C° 0 mm 3 mps 666 mmHg 72%
    19:00 +1°C° 0 mm 3 mps 665 mmHg 72%
    20:00 +1°C° 0 mm 3 mps 665 mmHg 73%
    21:00 0°C° 0 mm 3 mps 665 mmHg 73%
    22:00 +1°C° 0 mm 3 mps 664 mmHg 75%
    23:00 +1°C° 0 mm 3 mps 663 mmHg 77%

    23 January, Wednesday

    Time Temperature Precipitation Wind Pressure Humidity
    00:00 +1°C° 0 mm 3 mps 663 mmHg 79%
    01:00 0°C° 0.2 mm 4 mps 662 mmHg 81%
    02:00 0°C° 0.2 mm 4 mps 662 mmHg 83%
    03:00 0°C° 0.2 mm 4 mps 661 mmHg 85%
    04:00 0°C° 0.7 mm 4 mps 661 mmHg 87%
    05:00 0°C° 0.7 mm 4 mps 660 mmHg 89%
    06:00 -1°C° 0.7 mm 4 mps 660 mmHg 92%
    07:00 -1°C° 0.8 mm 4 mps 660 mmHg 91%
    08:00 0°C° 0.8 mm 5 mps 661 mmHg 90%
    09:00 -1°C° 0.8 mm 6 mps 661 mmHg 89%
    10:00 -1°C° 0.1 mm 7 mps 661 mmHg 85%
    11:00 0°C° 0.1 mm 8 mps 660 mmHg 80%
    12:00 0°C° 0.1 mm 9 mps 660 mmHg 76%
    13:00 0°C° 0.5 mm 10 mps 659 mmHg 78%
    14:00 0°C° 0.5 mm 10 mps 658 mmHg 79%
    15:00 -2°C° 0.5 mm 11 mps 657 mmHg 81%
    16:00 -2°C° 2.4 mm 10 mps 657 mmHg 84%
    17:00 -2°C° 2.4 mm 10 mps 657 mmHg 88%
    18:00 -1°C° 2.4 mm 9 mps 656 mmHg 92%
    19:00 -1°C° 2 mm 8 mps 656 mmHg 93%
    20:00 -1°C° 2 mm 7 mps 657 mmHg 93%
    21:00 0°C° 2 mm 5 mps 657 mmHg 94%
    22:00 0°C° 2.7 mm 5 mps 657 mmHg 95%
    23:00 -1°C° 2.7 mm 4 mps 656 mmHg 96%

    24 January, Thursday

    Time Temperature Precipitation Wind Pressure Humidity
    00:00 -1°C° 2.7 mm 4 mps 656 mmHg 96%
    01:00 -2°C° 1.5 mm 4 mps 656 mmHg 96%
    02:00 -4°C° 1.5 mm 5 mps 656 mmHg 95%
    03:00 -4°C° 1.5 mm 5 mps 656 mmHg 95%
    04:00 -5°C° 0.5 mm 6 mps 657 mmHg 93%
    05:00 -5°C° 0.5 mm 6 mps 658 mmHg 91%
    06:00 -6°C° 0.5 mm 7 mps 658 mmHg 90%
    07:00 -6°C° 0.1 mm 7 mps 659 mmHg 88%
    08:00 -6°C° 0.1 mm 8 mps 660 mmHg 86%
    09:00 -5°C° 0.1 mm 8 mps 660 mmHg 84%
    10:00 -5°C° 0.1 mm 9 mps 660 mmHg 85%
    11:00 -5°C° 0.1 mm 10 mps 661 mmHg 87%
    12:00 -4°C° 0.1 mm 10 mps 661 mmHg 88%
    13:00 -4°C° 0.2 mm 10 mps 661 mmHg 88%
    14:00 -4°C° 0.2 mm 9 mps 661 mmHg 88%
    15:00 -4°C° 0.2 mm 8 mps 661 mmHg 88%
    16:00 -4°C° 0 mm 7 mps 661 mmHg 88%
    17:00 -5°C° 0 mm 5 mps 662 mmHg 89%
    18:00 -5°C° 0 mm 4 mps 662 mmHg 90%
    19:00 -5°C° 0 mm 3 mps 662 mmHg 90%
    20:00 -6°C° 0 mm 3 mps 662 mmHg 90%
    21:00 -6°C° 0 mm 3 mps 662 mmHg 90%
    22:00 -6°C° 0 mm 3 mps 662 mmHg 90%
    23:00 -5°C° 0 mm 3 mps 662 mmHg 90%

    25 January, Friday

    Time Temperature Precipitation Wind Pressure Humidity
    00:00 -5°C° 0 mm 3 mps 662 mmHg 90%
    01:00 -4°C° 0.4 mm 3 mps 662 mmHg 91%
    02:00 -2°C° 0.4 mm 3 mps 662 mmHg 92%
    03:00 -1°C° 0.4 mm 3 mps 661 mmHg 93%
    04:00 -1°C° 1.1 mm 2 mps 662 mmHg 93%
    05:00 -1°C° 1.1 mm 2 mps 662 mmHg 94%
    06:00 -1°C° 1.1 mm 2 mps 662 mmHg 94%
    07:00 +1°C° 0.1 mm 2 mps 662 mmHg 96%
    08:00 +1°C° 0.1 mm 2 mps 663 mmHg 97%
    09:00 +1°C° 0.1 mm 2 mps 663 mmHg 99%
    10:00 +1°C° 0.3 mm 2 mps 663 mmHg 99%
    11:00 +2°C° 0.3 mm 2 mps 663 mmHg 99%
    12:00 +2°C° 0.3 mm 2 mps 663 mmHg 99%
    13:00 +1°C° 0.3 mm 3 mps 663 mmHg 99%
    14:00 +1°C° 0.3 mm 3 mps 663 mmHg 98%
    15:00 0°C° 0.3 mm 4 mps 664 mmHg 98%
    16:00 -1°C° 0.2 mm 4 mps 664 mmHg 98%
    17:00 -1°C° 0.2 mm 4 mps 664 mmHg 98%
    18:00 -2°C° 0.2 mm 5 mps 665 mmHg 98%
    19:00 -2°C° 0.1 mm 5 mps 665 mmHg 97%
    20:00 -2°C° 0.1 mm 5 mps 666 mmHg 96%
    21:00 -4°C° 0.1 mm 5 mps 667 mmHg 96%
    22:00 -3°C° 0 mm 4 mps 667 mmHg 96%
    23:00 -3°C° 0 mm 4 mps 667 mmHg 95%
    Show more